Regional Weather Roundup
Issued by NWS Mobile, AL

Home | Current Version | Previous Version | Text Only | Print | Product List | Glossary On
Versions: 1 2 3 4 5 6 7 8 9 10 11 12 13 14 15 16 17 18 19 20 21 22 23 24 25 26 27 28 29 30 31 32 33 34 35 36 37 38 39 40 41 42 43 44 45 46 47 48 49 50
000
ASUS44 KMOB 050216
RWRMOB
REGIONAL WEATHER ROUNDUP
NATIONAL WEATHER SERVICE MOBILE AL
900 PM CDT FRI SEP 04 2015

ALZ061>064-050300-
COASTAL ALABAMA


CITY           SKY/WX    TMP DP  RH WIND       PRES   REMARKS
MOBILE REG APT PTCLDY    79  75  87 CALM      29.98R
BROOKLEY FIELD CLEAR     81  75  82 CALM      29.98R
GULF SHORES    CLEAR     76  75  97 CALM      29.96S

$$

ALZ051>060-050300-
INTERIOR SOUTHWEST AND SOUTH CENTRAL ALABAMA


CITY           SKY/WX    TMP DP  RH WIND       PRES   REMARKS
ANDALUSIA/OPP  CLEAR     81  74  79 CALM      29.98R
EVERGREEN      CLEAR     78  77  96 CALM      29.98R FOG
FLORALA        CLEAR     78  74  87 CALM      30.00R
GREENVILLE     FAIR      78  72  81 CALM      29.98R

$$

FLZ001>006-050300-
WESTERN FLORIDA PANHANDLE


CITY           SKY/WX    TMP DP  RH WIND       PRES   REMARKS
CRESTVIEW      CLEAR     80  73  79 CALM      29.99R
DESTIN         CLEAR     84  75  74 CALM      29.97R
DUKE FIELD     FAIR      80  73  79 S3        29.97R
MARY ESTHER    CLEAR     82  74  77 NW3       29.96R
MILTON         PTCLDY    82  73  74 CALM      29.98R
PENSACOLA      CLEAR     82  74  76 W5        29.97R
NAS PENSACOLA  CLEAR     78  74  87 CALM      29.96R
VALPARAISO     PTCLDY    82  74  78 CALM      29.98R

$$

...MARINE OBSERVATIONS...

STATION/POSITION TIME  SKY/WX   TEMP    WIND        PRES    VSBY
                                AIR SEA DIR/SP/G
                 (UTC)          (F)     (DEG/KT/KT) (MB)    (MI)
PASCAGOULA       0100            84     240/  6/ 11 1014.1S
PETIT BOIS ISL   0100            84     260/  9/ 10 1014.8R
E DAUPHIN ISLAND 0200            83     250/  5/  6 1014.7R
MIDDLE BAY LIGHT 0100            83     250/ 10     1013.5F
USCG MOBILE BAY  0100            83 86  250/  4/  5 1013.4R
STATE DOCKS      0100            85 86              1014.0R
MEAHER PARK      0200            85     250/  6     1014.2R
FORT MORGAN      0100            84     280/  8/  9 1013.7F
12 S ORANGE BCH  0150            84 86  270/  6/  8 1014.1R
WVE H/P(F/S)=  1/ 3

PENSACOLA BAY    0100            84 86  280/  4/  7 1014.6R
64 S DAUPHIN ISL 0150            83 85  270/  6/  6 1015.2R
WVE H/P(F/S)=  1/ 6

115 SE PENSACOLA 0150            81 85  320/  6/  6 1015.6R
WVE H/P(F/S)=  2/ 5

MID GULF/42001   0200            85 87  110/  8/ 10 1015.5R
EAST GULF/42003  0150            83 86   10/ 10/ 12 1015.5R
WVE H/P(F/S)=  1/ 6


$$

...NEARBY LOCATIONS

CITY           SKY/WX    TMP DP  RH WIND       PRES   REMARKS
GULFPORT       CLEAR     81  76  84 W3        29.96R
BILOXI         CLEAR     82  77  84 W3        29.96R
PASCAGOULA     CLEAR     77  75  93 CALM      29.97R
HATTIESBURG    CLEAR     83  73  72 SW3       29.97R
LAUREL         CLEAR     82  68  61 SW3       29.99R
MERIDIAN       PTCLDY    79  76  90 CALM      29.98R
MERIDIAN NAS   PTCLDY    79  74  84 CALM      29.98R
MONTGOMERY     PTCLDY    80  74  81 CALM      29.98R
MAXWELL AFB    PTCLDY    79  76  91 N2        29.97R
TROY           PTCLDY    76  73  91 CALM      29.99R
FORT RUCKER    PTCLDY    78  74  87 CALM      29.97R
DALEVILLE      PTCLDY    78  75  89 W5        29.98R
DOTHAN         PTCLDY    80  71  74 S3        30.02R

$$

...OTHER SURROUNDING LOCATIONS...

CITY           SKY/WX    TMP DP  RH WIND       PRES   REMARKS
BIRMINGHAM     MOCLDY    80  73  79 N3        30.03R
TUSCALOOSA     PTCLDY    78  73  84 CALM      29.99R
COLUMBUS GA    CLEAR     84  70  62 CALM      29.98R
PANAMA CITY    NOT AVBL
TALLAHASSEE    PTCLDY    79  73  82 CALM      29.98R
BATON ROUGE    PTCLDY    79  73  82 W3        29.97R
NEW ORLEANS    MOCLDY    79  72  79 S5        29.96R
SLIDELL        CLEAR     79  76  90 CALM      29.96R
JACKSON        MOCLDY    84  68  58 E7        29.96R
MCCOMB         CLEAR     76  75  97 CALM      29.98R

$$

...SURROUNDING MARINE OBSERVATIONS...

STATION/POSITION TIME  SKY/WX   TEMP    WIND        PRES    VSBY
                                AIR SEA DIR/SP/G
                 (UTC)          (F)     (DEG/KT/KT) (MB)    (MI)
WAVELAND         0100            83 88  270/  4/  5 1014.5R
PASCAGOULA RGN A 0100            85     250/  7/  8 1013.7S
PASCAGOULA PORT  0100               86                N/A
GRAND ISLE       0100            83 86  240/  3/  4 1014.7S
SOUTHWEST PASS   0200                                 N/A
PILOT STATION E  0100            84 86  290/  4/  6 1015.1R
SHELL BEACH      0100            80 85  210/  4/  5 1013.8F
PANAMA CITY      0100            83 87  290/  4/  6 1014.1S
APALACHICOLA     0100            82 87   CALM  /  2 1014.8R
TYNDALL TOWER C  0200            83     330/  9/ 10 1015.1R
S APLCHCLA/42036 0150            84 86  350/  4/  4 1015.1R
WVE H/P(F/S)=  1/ 3


$$



USA.gov is the U.S. government's official web portal to all federal, state and local government web resources and services.